Powrót do katalogu

NORSAT 4

AktywnyNaukaSSO
NORAD 62702·PAYLOAD·🇳🇴 Norway

Wystrzelony Jan 14, 2025 z Vandenberg Space Force Base

Loading…

Następne Przeloty (najbliższe 24 godziny)

TLE

ŚwieżeSource: Space-Track

Epoka: Sep 14, 2026, 10:53 UTC

1 62702U 25009CX  26257.45393844  .00001134  00000-0  10809-3 0  9995
2 62702  97.6989 334.5852 0003153  94.8131 265.3450 14.95309933 90702

Śledź NORSAT 4 w czasie rzeczywistym z AllMySat

Download on the App Store